sat.trackr.live / text

‹ back to catalog

STARLINK-33794

NORAD 63820 · 2025-092S

PAYLOAD ACTIVE UNKNOWN

§ Identity

Operator
Country
US
Launch date
2025-05-04
Launch site
AFETR
Launch vehicle
Mass (kg)
RCS (m²)

Purposes: comms

External: N2YO · Heavens-Above · Gunter

§ Orbital elements

Epoch: 2026-05-24T14:39:29.099808Z

Period
94.27 min
Inclination
42.9992°
Eccentricity
0.0001199
Mean motion
15.27590224 rev/d
Perigee alt
482.2 km
Apogee alt
483.8 km
Semi-major
6,861.2 km
B*
4.4338e-4
RAAN
103.9693°
Arg perigee
277.9842°
Mean anomaly
82.0874°
Rev number
6,022

§ Raw data

STARLINK-337941 63820U 25092S   26144.61075347  .00011962  00000+0  44338-3 0  99902 63820  42.9992 103.9693 0001199 277.9842  82.0874 15.27590224 60222

JSON: /api/v1/satellites/63820 · /tle

For live sub-satellite position, see the globe view (requires WebGL).

§ Visibility from observer

Set your observer location to see the next 7 days of passes ≥ 10°. The values pass through the URL so the page stays shareable.

No JS? Fill the form by hand. The geolocation button needs JavaScript.